シューメーカー-レヴィ第5彗星

145P/Shoemaker-Levy 5 (2017)

English version
Home page
Updated on May 21, 2018

---------------------------------------------------------------------

・ プロフィール

・ 写真集

・ 軌道要素

Epoch 2017 Sept. 4.0 TT = JDT 2458000.5
T 2017 Aug. 31.90010 TT                                 MPCW
q   1.9041154            (2000.0)            P               Q
n   0.11673102     Peri.   10.36734     +0.79832990     -0.59574612
a   4.1464700      Node    26.81013     +0.53760792     +0.63911529
e   0.5407864      Incl.   11.25973     +0.27138000     +0.48643417
P   8.44
From 738 observations 1991 Sept. 17-2018 Jan. 23, mean residual 0".6.
     Nongravitational parameters A1 = -0.01, A2 = -0.0140.

・ 星図

・ 光度変化

        m1 = 9.0 + 5 logΔ + 20.0 log r(t - 40)

---------------------------------------------------------------------

軌道要素はM.P.E.C. 2018-B155に掲載されたものです。
星図はステラナビゲータ Ver.10 (アストロアーツ) で作成したものです。
光度グラフはComet for Windowsで作成したものです。

---------------------------------------------------------------------

Copyright(C) Seiichi Yoshida (comet@aerith.net). All rights reserved.